When you browse on this site, cookies collect data to enhance your experience and personalize the content and advertising you see.
Visit our Privacy Policy to learn more. By continuing to use the site, you agree to this use of cookies and data.
  • In Spain
  • List of Countries
  • For 7 days
  • Water Temperature
  • Weather Map
  • Weather Widgets
  • user-avatar
    Login

    Hourly Weather Kanye

    Today, 24 February, Monday

    Time Temperature Precipitation Wind Pressure Humidity
    00:00 +18°C° 0.1 mm 8 mps 652 mmHg 87%
    01:00 +18°C° 0.1 mm 7 mps 652 mmHg 86%
    02:00 +18°C° 0.1 mm 7 mps 652 mmHg 86%
    03:00 +19°C° 0 mm 6 mps 652 mmHg 85%
    04:00 +17°C° 0 mm 6 mps 652 mmHg 85%
    05:00 +17°C° 0 mm 6 mps 652 mmHg 84%
    06:00 +17°C° 0 mm 6 mps 653 mmHg 81%
    07:00 +19°C° 0 mm 6 mps 653 mmHg 78%
    08:00 +19°C° 0 mm 6 mps 654 mmHg 75%
    09:00 +20°C° 0 mm 6 mps 654 mmHg 69%
    10:00 +21°C° 0 mm 6 mps 654 mmHg 63%
    11:00 +23°C° 0 mm 6 mps 655 mmHg 57%
    12:00 +25°C° 0 mm 5 mps 654 mmHg 54%
    13:00 +26°C° 0 mm 5 mps 654 mmHg 51%
    14:00 +26°C° 0 mm 4 mps 654 mmHg 47%
    15:00 +27°C° 0 mm 4 mps 654 mmHg 45%
    16:00 +27°C° 0 mm 4 mps 654 mmHg 42%
    17:00 +28°C° 0 mm 4 mps 653 mmHg 40%
    18:00 +26°C° 0 mm 3 mps 653 mmHg 45%
    19:00 +24°C° 0 mm 3 mps 653 mmHg 51%
    20:00 +21°C° 0 mm 2 mps 653 mmHg 56%
    21:00 +21°C° 0 mm 2 mps 653 mmHg 58%
    22:00 +20°C° 0 mm 2 mps 653 mmHg 60%
    23:00 +19°C° 0 mm 2 mps 653 mmHg 62%

    Tomorrow, 25 February, Tuesday

    Time Temperature Precipitation Wind Pressure Humidity
    00:00 +19°C° 0 mm 2 mps 652 mmHg 65%
    01:00 +19°C° 0 mm 1 mps 652 mmHg 68%
    02:00 +18°C° 0 mm 1 mps 651 mmHg 71%
    03:00 +18°C° 0 mm 1 mps 651 mmHg 73%
    04:00 +16°C° 0 mm 1 mps 651 mmHg 74%
    05:00 +16°C° 0 mm 2 mps 651 mmHg 76%
    06:00 +17°C° 0 mm 3 mps 652 mmHg 73%
    07:00 +18°C° 0 mm 4 mps 652 mmHg 70%
    08:00 +19°C° 0 mm 4 mps 653 mmHg 67%
    09:00 +21°C° 0 mm 4 mps 653 mmHg 59%
    10:00 +23°C° 0 mm 4 mps 654 mmHg 52%
    11:00 +26°C° 0 mm 4 mps 654 mmHg 44%
    12:00 +28°C° 0 mm 4 mps 654 mmHg 38%
    13:00 +29°C° 0 mm 4 mps 654 mmHg 31%
    14:00 +32°C° 0 mm 4 mps 653 mmHg 24%
    15:00 +32°C° 0 mm 4 mps 653 mmHg 24%
    16:00 +30°C° 0 mm 4 mps 652 mmHg 23%
    17:00 +30°C° 0 mm 4 mps 652 mmHg 22%
    18:00 +28°C° 0 mm 4 mps 651 mmHg 27%
    19:00 +26°C° 0 mm 3 mps 651 mmHg 32%
    20:00 +22°C° 0 mm 3 mps 651 mmHg 37%
    21:00 +22°C° 0 mm 3 mps 651 mmHg 40%
    22:00 +21°C° 0 mm 3 mps 651 mmHg 43%
    23:00 +20°C° 0 mm 3 mps 651 mmHg 46%

    Day after tomorrow, 26 February, Wednesday

    Time Temperature Precipitation Wind Pressure Humidity
    00:00 +19°C° 0 mm 3 mps 651 mmHg 46%
    01:00 +19°C° 0 mm 2 mps 650 mmHg 45%
    02:00 +19°C° 0 mm 2 mps 650 mmHg 45%
    03:00 +18°C° 0 mm 2 mps 650 mmHg 47%
    04:00 +18°C° 0 mm 2 mps 650 mmHg 49%
    05:00 +17°C° 0 mm 2 mps 650 mmHg 52%
    06:00 +18°C° 0 mm 2 mps 651 mmHg 49%
    07:00 +19°C° 0 mm 2 mps 651 mmHg 46%
    08:00 +20°C° 0 mm 2 mps 652 mmHg 44%
    09:00 +23°C° 0 mm 2 mps 652 mmHg 39%
    10:00 +26°C° 0 mm 2 mps 653 mmHg 34%
    11:00 +28°C° 0 mm 2 mps 653 mmHg 29%
    12:00 +29°C° 0 mm 2 mps 653 mmHg 27%
    13:00 +31°C° 0 mm 3 mps 653 mmHg 25%
    14:00 +33°C° 0 mm 3 mps 652 mmHg 24%
    15:00 +33°C° 0 mm 3 mps 652 mmHg 23%
    16:00 +33°C° 0 mm 3 mps 651 mmHg 22%
    17:00 +33°C° 0 mm 3 mps 650 mmHg 21%
    18:00 +30°C° 0 mm 3 mps 650 mmHg 25%
    19:00 +27°C° 0 mm 2 mps 650 mmHg 29%
    20:00 +25°C° 0 mm 2 mps 649 mmHg 33%
    21:00 +25°C° 0 mm 2 mps 650 mmHg 35%
    22:00 +24°C° 0 mm 2 mps 650 mmHg 37%
    23:00 +23°C° 0 mm 2 mps 650 mmHg 39%

    27 February, Thursday

    Time Temperature Precipitation Wind Pressure Humidity
    00:00 +23°C° 0 mm 2 mps 650 mmHg 41%
    01:00 +23°C° 0 mm 2 mps 649 mmHg 42%
    02:00 +21°C° 0 mm 2 mps 649 mmHg 44%
    03:00 +21°C° 0 mm 2 mps 649 mmHg 47%
    04:00 +20°C° 0 mm 2 mps 649 mmHg 51%
    05:00 +20°C° 0 mm 2 mps 649 mmHg 54%
    06:00 +21°C° 0 mm 2 mps 650 mmHg 51%
    07:00 +23°C° 0 mm 2 mps 651 mmHg 48%
    08:00 +24°C° 0 mm 2 mps 651 mmHg 45%
    09:00 +26°C° 0 mm 2 mps 652 mmHg 41%
    10:00 +27°C° 0 mm 3 mps 652 mmHg 38%
    11:00 +28°C° 0 mm 4 mps 652 mmHg 35%
    12:00 +30°C° 0 mm 4 mps 652 mmHg 32%
    13:00 +32°C° 0 mm 4 mps 652 mmHg 28%
    14:00 +33°C° 0 mm 4 mps 652 mmHg 25%
    15:00 +33°C° 0 mm 4 mps 651 mmHg 24%
    16:00 +33°C° 0 mm 4 mps 651 mmHg 23%
    17:00 +33°C° 0 mm 4 mps 650 mmHg 22%
    18:00 +30°C° 0 mm 3 mps 650 mmHg 25%
    19:00 +28°C° 0 mm 3 mps 650 mmHg 28%
    20:00 +26°C° 0 mm 2 mps 650 mmHg 32%
    21:00 +25°C° 0 mm 2 mps 650 mmHg 35%
    22:00 +25°C° 0 mm 2 mps 650 mmHg 38%
    23:00 +24°C° 0 mm 2 mps 650 mmHg 41%

    28 February, Friday

    Time Temperature Precipitation Wind Pressure Humidity
    00:00 +24°C° 0 mm 2 mps 649 mmHg 41%
    01:00 +24°C° 0 mm 2 mps 649 mmHg 42%
    02:00 +24°C° 0 mm 1 mps 649 mmHg 43%
    03:00 +23°C° 0 mm 1 mps 649 mmHg 43%
    04:00 +23°C° 0 mm 1 mps 650 mmHg 44%
    05:00 +23°C° 0 mm 1 mps 650 mmHg 44%
    06:00 +24°C° 0 mm 1 mps 651 mmHg 42%
    07:00 +25°C° 0 mm 1 mps 651 mmHg 40%
    08:00 +27°C° 0 mm 1 mps 652 mmHg 38%
    09:00 +28°C° 0 mm 2 mps 653 mmHg 33%
    10:00 +30°C° 0 mm 3 mps 653 mmHg 29%
    11:00 +33°C° 0 mm 4 mps 654 mmHg 24%
    12:00 +34°C° 0 mm 5 mps 653 mmHg 23%
    13:00 +34°C° 0 mm 5 mps 653 mmHg 21%
    14:00 +35°C° 0 mm 6 mps 653 mmHg 20%
    15:00 +34°C° 0 mm 5 mps 652 mmHg 21%
    16:00 +33°C° 0 mm 5 mps 652 mmHg 23%
    17:00 +32°C° 0 mm 5 mps 651 mmHg 25%
    18:00 +30°C° 0 mm 4 mps 651 mmHg 28%
    19:00 +28°C° 0 mm 3 mps 651 mmHg 31%
    20:00 +27°C° 0 mm 3 mps 651 mmHg 34%
    21:00 +26°C° 0 mm 2 mps 651 mmHg 38%
    22:00 +25°C° 0 mm 2 mps 652 mmHg 41%
    23:00 +24°C° 0 mm 1 mps 652 mmHg 44%

    29 February, Saturday

    Time Temperature Precipitation Wind Pressure Humidity
    00:00 +24°C° 0.2 mm 3 mps 652 mmHg 53%
    01:00 +22°C° 0.2 mm 5 mps 652 mmHg 61%
    02:00 +21°C° 0.2 mm 7 mps 652 mmHg 69%
    03:00 +20°C° 0.7 mm 7 mps 652 mmHg 75%
    04:00 +20°C° 0.7 mm 7 mps 652 mmHg 80%
    05:00 +18°C° 0.7 mm 7 mps 652 mmHg 86%
    06:00 +17°C° 2.3 mm 7 mps 652 mmHg 87%
    07:00 +17°C° 2.3 mm 6 mps 652 mmHg 88%
    08:00 +16°C° 2.3 mm 6 mps 653 mmHg 89%
    09:00 +17°C° 1.6 mm 6 mps 653 mmHg 87%
    10:00 +17°C° 1.6 mm 6 mps 653 mmHg 85%
    11:00 +17°C° 1.6 mm 6 mps 653 mmHg 83%
    12:00 +19°C° 0 mm 6 mps 653 mmHg 78%
    13:00 +20°C° 0 mm 6 mps 653 mmHg 72%
    14:00 +21°C° 0 mm 6 mps 652 mmHg 66%
    15:00 +22°C° 0 mm 5 mps 652 mmHg 63%
    16:00 +22°C° 0 mm 5 mps 652 mmHg 59%
    17:00 +23°C° 0 mm 4 mps 651 mmHg 56%
    18:00 +22°C° 0 mm 3 mps 651 mmHg 59%
    19:00 +21°C° 0 mm 3 mps 652 mmHg 62%
    20:00 +20°C° 0 mm 2 mps 652 mmHg 64%
    21:00 +20°C° 0 mm 2 mps 652 mmHg 66%
    22:00 +19°C° 0 mm 2 mps 652 mmHg 67%
    23:00 +19°C° 0 mm 2 mps 652 mmHg 68%
    Show more